VU3OPX-13 Weather Reports


time (UTC)temp
F
wind
direction
speed
knots
gust
knots
rain 1hr
in
rain 24hr
in
rain mn
in
humidity
%
barometer
mb
20260507223600 77 278 3.5 0.0 0.00 0.00 8.26 75 1008.0
20260507220612 78 285 4.3 0.0 0.00 0.00 8.26 71 1007.0
20260507213625 78 285 4.3 0.0 0.00 0.00 8.26 71 1007.0
20260507210637 78 282 4.3 0.0 0.00 0.00 8.26 72 1008.0
20260507203650 78 282 4.3 0.0 0.00 0.00 8.26 72 1008.0
20260507193715 78 284 4.3 0.0 0.00 0.00 8.26 73 1008.0
20260507190728 78 264 3.5 0.0 0.00 0.00 8.26 75 1009.0
20260507183741 78 264 3.5 0.0 0.00 0.00 8.26 75 1009.0
20260507180753 80 265 4.3 0.0 0.00 0.00 8.26 66 1010.0
20260507173805 80 254 4.3 0.0 0.00 0.00 8.26 66 1010.0
20260507170818 79 288 5.2 0.0 0.00 0.00 8.26 69 1011.0
20260507163831 81 223 8.7 0.0 0.00 0.00 8.26 66 1010.0
20260507160843 81 223 8.7 0.0 0.00 0.00 8.26 66 1010.0
20260507150908 81 199 11.3 0.0 0.00 0.00 8.26 66 1010.0
20260507143920 81 199 11.3 0.0 0.00 0.00 8.26 66 1010.0
20260507133605 83 217 10.4 0.0 0.00 0.00 8.26 60 1008.0
20260507130618 85 261 10.4 0.0 0.00 0.00 8.26 55 1007.0
20260507123631 87 261 10.4 0.0 0.00 0.00 8.26 49 1006.0
20260507113655 91 260 15.6 0.0 0.01 0.00 8.26 42 1005.0
20260507110708 92 257 16.5 0.0 0.01 0.00 8.26 39 1005.0
20260507103721 92 257 16.5 0.0 0.00 0.00 8.26 39 1005.0
20260507100734 96 245 10.4 0.0 0.00 0.00 8.26 29 1005.0
20260507093746 96 245 10.4 0.0 0.00 0.00 8.26 29 1005.0
20260507090758 100 92 3.5 0.0 0.00 0.00 8.26 18 1005.0
20260507083811 100 92 3.5 0.0 0.00 0.00 8.26 18 1005.0
20260507080824 101 66 7.0 0.0 0.00 0.00 8.26 16 1006.0
20260507071319 100 54 7.0 0.0 0.00 0.00 8.26 17 1007.0
20260507064331 101 54 7.0 0.0 0.00 0.00 8.26 17 1007.0
20260507061344 98 48 7.0 0.0 0.00 0.00 8.26 20 1008.0
20260507054357 98 48 7.0 0.0 0.00 0.00 8.26 20 1008.0
20260507051409 96 41 7.8 0.0 0.00 0.00 8.26 24 1008.0
20260507044422 96 41 7.8 0.0 0.00 0.00 8.26 24 1008.0
20260507035549 94 39 7.8 0.0 0.00 0.00 8.26 28 1009.0
20260507032602 89 30 4.3 0.0 0.00 0.00 8.26 36 1009.0
20260507025614 89 30 4.3 0.0 0.00 0.00 8.26 36 1009.0
20260507022626 83 344 2.6 0.0 0.00 0.00 8.26 46 1009.0
20260507015639 83 344 2.6 0.0 0.00 0.00 8.26 46 1009.0
20260507005702 77 293 2.6 0.0 0.00 0.00 8.26 55 1008.0
20260507002715 77 273 2.6 0.0 0.00 0.00 8.26 58 1007.0
20260506235727 77 273 2.6 0.0 0.00 0.00 8.26 58 1007.0
20260506232740 76 154 2.6 0.0 0.00 0.00 8.26 60 1007.0
20260506225753 76 154 2.6 0.0 0.00 0.00 8.26 60 1007.0